Flag for Finland Weather past 2 weeks in Oulu, Finland

Now
54 °F

Partly cloudy.


Feels Like: 52 °F
Forecast: 52 / 62 °F
Wind: 7 mph from South

Location: Oulu Airport

Current Time: Sep 5, 2015 at 2:22:43 AM

Latest Report: Sep 5, 2015 at 1:50 AM


Visibility: N/A

Pressure: 29.59 "Hg

Humidity: 100%

Dew point: 54 °F

Location of OuluLocation

Historic Weather in Oulu — Graph

°F

Oulu temperature yesterday

Maximum temperature yesterday: 63 °F (at 2:20 PM)
Minimum temperature yesterday: 37 °F (at 1:50 AM)
Average temperature yesterday: 52 °F

Past Weeks' High & Low Weather Summary

 TemperatureHumidityPressure
High75 °F (Aug 26, 3:20 PM)100% (Aug 21, 5:20 AM)30.30 "Hg (Aug 21, 5:20 AM)
Low36 °F (Sep 3, 5:50 AM)41% (Aug 23, 4:20 PM)29.47 "Hg (Aug 29, 2:20 AM)
Average58 °F80%29.97 "Hg
* Reported Aug 21 1:50 AM — Sep 5 1:20 AM, Oulu, Weather by CustomWeather, © 2015

Note: Actual official high and low records may vary slightly from our data, if they occured in-between our weather recording intervals... More about our weather records

Advertising

Oulu weather history for previous 24 hours

 ConditionsComfort  
Time TempWeatherWind HumidityBarometerVisibility
1:20 AM
Sat, Sep 5
54 °FPassing clouds.7 mph94%29.59 "HgN/A
12:20 AM54 °FLight rain. Passing clouds.7 mph100%29.59 "HgN/A
11:50 PM
Fri, Sep 4
55 °FMostly cloudy.10 mph94%29.59 "HgN/A
11:20 PM54 °FMostly cloudy.8 mph100%29.59 "HgN/A
10:50 PM54 °FMostly cloudy.5 mph94%29.62 "HgN/A
10:20 PM54 °FMostly cloudy.6 mph94%29.62 "HgN/A
9:50 PM54 °FMostly cloudy.7 mph94%29.62 "HgN/A
9:20 PM54 °FLight rain. Cloudy.7 mph100%29.62 "HgN/A
8:50 PM55 °FScattered clouds.6 mph88%29.65 "HgN/A
8:20 PM55 °FPartly sunny.6 mph88%29.65 "HgN/A
7:50 PM57 °FPartly sunny.7 mph82%29.65 "HgN/A
7:20 PM57 °FPartly sunny.8 mph82%29.65 "HgN/A
6:50 PM59 °FPartly sunny.9 mph77%29.65 "HgN/A
6:20 PM59 °FPartly sunny.7 mph77%29.65 "HgN/A
5:50 PM61 °FScattered clouds.8 mph63%29.65 "HgN/A
5:20 PM61 °FPassing clouds.7 mph59%29.68 "HgN/A
4:50 PM63 °FScattered clouds.8 mph56%29.68 "HgN/A
4:20 PM61 °FSunny.7 mph59%29.68 "Hg10 mi
3:50 PM61 °FPassing clouds.9 mph63%29.71 "HgN/A
3:20 PM61 °FPassing clouds.9 mph59%29.71 "HgN/A
2:50 PM63 °FScattered clouds.9 mph59%29.71 "HgN/A
2:20 PM63 °FPassing clouds.9 mph59%29.71 "HgN/A
1:50 PM61 °FScattered clouds.9 mph63%29.71 "HgN/A
1:20 PM61 °FPassing clouds.10 mph63%29.71 "HgN/A
12:50 PM59 °FPassing clouds.9 mph72%29.74 "HgN/A
12:20 PM57 °FSunny.10 mph77%29.74 "Hg10 mi
11:50 AM55 °FSunny.10 mph82%29.74 "Hg10 mi
11:20 AM55 °FSunny.12 mph82%29.74 "Hg10 mi
10:50 AM55 °FSunny.10 mph82%29.77 "Hg10 mi
10:20 AM54 °FSunny.10 mph88%29.77 "Hg10 mi
9:50 AM54 °FPassing clouds.10 mph88%29.77 "HgN/A
9:20 AM52 °FPassing clouds.10 mph88%29.77 "HgN/A
8:50 AM50 °FPassing clouds.12 mph94%29.77 "HgN/A
8:20 AM48 °FSunny.9 mph94%29.77 "Hg10 mi
7:50 AM46 °FSunny.8 mph100%29.77 "Hg10 mi
7:20 AM43 °FSunny.5 mph100%29.77 "Hg10 mi
6:50 AM41 °FClear.5 mph100%29.80 "Hg10 mi
6:20 AM41 °FPassing clouds.6 mph100%29.80 "HgN/A
5:50 AM45 °FClear.6 mph93%29.80 "Hg10 mi
5:20 AM45 °FClear.7 mph93%29.80 "Hg10 mi
4:50 AM39 °FClear.5 mph93%29.83 "Hg10 mi
4:20 AM37 °FPassing clouds.3 mph93%29.83 "HgN/A
3:50 AM37 °FClear.2 mph100%29.83 "Hg10 mi
3:20 AM37 °FClear.5 mph93%29.83 "Hg10 mi
2:50 AM37 °FClear.3 mph93%29.83 "Hg10 mi
2:20 AM39 °FClear.5 mph93%29.86 "Hg10 mi
Weather by CustomWeather, © 2015

See weather overviewHow to use our weather pages